Flag for Canada Weather past 2 weeks in Strathcona County, Alberta, Canada

Now
70 °F

Clear.


Feels Like: 70 °F
Forecast: 49 / 80 °F
Wind: 15 mph from South

Location: Edmonton Municipal

Current Time: Sep 21, 2014 at 11:10:03 PM

Latest Report: Sep 21, 2014 at 10:00 PM


Visibility: 9 mi

Pressure: 29.78 "Hg

Humidity: 46%

Dew point: 48 °F

Location of Strathcona CountyLocation

Historic Weather in Strathcona County — Graph

°F

Strathcona County temperature yesterday

Maximum temperature yesterday: 70 °F (at 5:00 PM)
Minimum temperature yesterday: 50 °F (at 7:00 AM)
Average temperature yesterday: 60 °F

Past Weeks' High & Low Weather Summary

 TemperatureHumidityPressure
High82 °F (Sep 21, 3:00 PM)100% (Sep 7, 6:50 PM)30.66 "Hg (Sep 7, 6:50 PM)
Low28 °F (Sep 11, 4:00 AM)28% (Sep 21, 2:00 PM)29.55 "Hg (Sep 18, 5:00 AM)
Average51 °F68%30.06 "Hg
* Reported Sep 6 10:00 PM — Sep 21 10:00 PM, Strathcona County, Weather by CustomWeather, © 2014

Note: Actual official high and low records may vary slightly from our data, if they occured in-between our weather recording intervals... More about our weather records

Advertising

Strathcona County weather history for previous 24 hours

 ConditionsComfort  
Time TempWeatherWind HumidityBarometerVisibility
10:00 PM
Sep 21
70 °FClear.15 mph46%29.78 "Hg9 mi
9:00 PM72 °FClear.16 mph44%29.80 "Hg9 mi
8:00 PM75 °FSunny.12 mph39%29.82 "Hg9 mi
7:00 PM77 °FSunny.8 mph34%29.83 "Hg9 mi
6:00 PM79 °FSunny.15 mph30%29.84 "Hg9 mi
5:00 PM79 °FSunny.14 mph30%29.86 "Hg9 mi
4:00 PM82 °FSunny.21 mph28%29.87 "Hg9 mi
3:00 PM82 °FSunny.17 mph28%29.90 "Hg9 mi
2:00 PM81 °FSunny.17 mph28%29.93 "Hg9 mi
1:00 PM79 °FSunny.20 mph30%29.97 "Hg9 mi
12:00 PM75 °FSunny.15 mph39%30.00 "Hg9 mi
11:00 AM70 °FSunny.13 mph46%30.03 "Hg9 mi
10:00 AM63 °FSunny.3 mph56%30.05 "Hg9 mi
9:00 AM54 °FSunny.3 mph72%30.08 "Hg9 mi
8:00 AM48 °FClear.No wind82%30.09 "Hg9 mi
7:00 AM48 °FClear.3 mph82%30.09 "Hg9 mi
6:00 AM50 °FClear.3 mph76%30.09 "Hg9 mi
5:00 AM50 °FClear.2 mph76%30.10 "Hg9 mi
4:00 AM50 °FClear.5 mph76%30.11 "Hg9 mi
3:00 AM52 °FClear.5 mph72%30.10 "Hg9 mi
2:00 AM54 °FClear.5 mph67%30.11 "Hg9 mi
1:00 AM55 °FClear.6 mph63%30.11 "Hg9 mi
12:00 AM55 °FClear.6 mph59%30.11 "Hg9 mi
11:00 PM
Sep 20
57 °FClear.6 mph55%30.11 "Hg9 mi
Weather by CustomWeather, © 2014

See weather overviewHow to use our weather pages